TimeMST,TemperatureF,Dew PointF,Humidity,Sea Level PressureIn,VisibilityMPH,Wind Direction,Wind SpeedMPH,Gust SpeedMPH,PrecipitationIn,Events,Conditions,WindDirDegrees,DateUTC
12:53 AM,34.0,17.1,50,29.99,10.0,WNW,13.8,-,N/A,,Overcast,300,2013-12-30 07:53:00
1:53 AM,34.0,18.0,52,30.01,10.0,WNW,10.4,-,N/A,,Overcast,290,2013-12-30 08:53:00
2:53 AM,32.0,18.0,56,30.03,10.0,WNW,9.2,-,N/A,,Overcast,300,2013-12-30 09:53:00
3:53 AM,35.1,17.1,48,30.04,10.0,WNW,9.2,-,N/A,,Overcast,290,2013-12-30 10:53:00
4:53 AM,36.0,16.0,44,30.06,10.0,WNW,10.4,-,N/A,,Overcast,290,2013-12-30 11:53:00
5:53 AM,34.0,16.0,48,30.10,10.0,WNW,11.5,-,N/A,,Overcast,290,2013-12-30 12:53:00
6:53 AM,35.1,18.0,50,30.14,10.0,WNW,16.1,24.2,N/A,,Overcast,290,2013-12-30 13:53:00
7:53 AM,35.1,16.0,46,30.15,10.0,West,21.9,26.5,N/A,,Mostly Cloudy,280,2013-12-30 14:53:00
8:53 AM,37.0,21.0,52,30.19,10.0,WNW,13.8,24.2,N/A,,Clear,290,2013-12-30 15:53:00
9:53 AM,39.0,18.0,43,30.21,10.0,WNW,17.3,28.8,N/A,,Clear,290,2013-12-30 16:53:00
10:53 AM,41.0,18.0,40,30.21,10.0,WNW,20.7,29.9,N/A,,Clear,290,2013-12-30 17:53:00
11:53 AM,43.0,19.9,40,30.19,10.0,WNW,18.4,28.8,N/A,,Clear,300,2013-12-30 18:53:00
12:53 PM,44.1,19.9,38,30.17,10.0,WNW,18.4,31.1,N/A,,Clear,300,2013-12-30 19:53:00
1:53 PM,43.0,18.0,37,30.17,10.0,WNW,13.8,24.2,N/A,,Partly Cloudy,300,2013-12-30 20:53:00
2:53 PM,44.1,19.0,37,30.17,10.0,NW,17.3,23.0,N/A,,Clear,310,2013-12-30 21:53:00
3:53 PM,39.9,19.0,43,30.17,10.0,NW,8.1,-,N/A,,Clear,310,2013-12-30 22:53:00
4:53 PM,32.0,19.0,59,30.19,10.0,Calm,Calm,-,N/A,,Clear,0,2013-12-30 23:53:00
5:53 PM,27.0,18.0,69,30.19,10.0,SE,4.6,-,N/A,,Clear,130,2013-12-31 00:53:00
6:53 PM,24.1,18.0,77,30.20,10.0,NNW,3.5,-,N/A,,Clear,340,2013-12-31 01:53:00
7:53 PM,25.0,17.1,72,30.19,10.0,Calm,Calm,-,N/A,,Clear,0,2013-12-31 02:53:00
8:53 PM,21.9,16.0,78,30.18,10.0,Calm,Calm,-,N/A,,Clear,0,2013-12-31 03:53:00
9:53 PM,25.0,18.0,75,30.16,10.0,ENE,5.8,-,N/A,,Clear,70,2013-12-31 04:53:00
10:53 PM,26.1,19.0,75,30.14,10.0,Calm,Calm,-,N/A,,Clear,0,2013-12-31 05:53:00
11:53 PM,25.0,18.0,75,30.09,10.0,SSE,3.5,-,N/A,,Clear,160,2013-12-31 06:53:00